Location: Newark
(38.6428°N, 100.1689°W)
Time: 12:50:44
(UTC+00:00)

Hubble Space Telescope - Visible Passes

Search period start: 19 November 2019 00:00
Search period end: 29 November 2019 00:00
Orbit: 536 x 540 km, 28.5° (Epoch: 17 November)

Date Brightness Start Highest point End Pass type
(mag) Time Alt. Az. Time Alt. Az. Time Alt. Az.
20 Nov 3.2 00:26:15 10° S 00:27:20 11° SSE 00:28:25 10° SSE visible
20 Nov 3.6 02:04:53 10° SW 02:05:22 12° SW 02:05:22 12° SW visible
21 Nov 3.2 00:14:46 10° SSW 00:16:37 13° SSE 00:18:28 10° SE visible
21 Nov 3.3 01:54:07 10° SW 01:55:23 15° SSW 01:55:23 15° SSW visible
22 Nov 3.1 00:03:37 10° SSW 00:05:54 14° SSE 00:08:11 10° SE visible
22 Nov 3.0 01:43:25 10° SW 01:45:24 18° SSW 01:45:24 18° SSW visible
22 Nov 3.1 23:52:38 10° SSW 23:55:12 16° S 23:57:46 10° SE visible
23 Nov 2.8 01:32:45 10° SW 01:35:26 19° S 01:35:26 19° S visible
24 Nov 2.8 01:22:06 10° SW 01:25:03 19° S 01:25:30 19° S visible
25 Nov 2.9 01:11:31 10° SW 01:14:22 18° S 01:15:37 16° SSE visible
26 Nov 3.1 01:00:59 10° SW 01:03:40 17° S 01:05:48 12° SSE visible
27 Nov 3.3 00:50:31 10° SW 00:52:57 15° SSW 00:55:24 10° SSE visible
28 Nov 3.4 00:40:09 10° SW 00:42:15 14° SSW 00:44:20 10° SSE visible
